Weather History for EINN - January, 2012

Change the Weather History Date:

Sunday, January 22, 2012

  Actual Average Record
Temperature  
Mean Temperature 47 °F -  
Max Temperature 50 °F 47 °F 53 °F (2008)
Min Temperature 44 °F 37 °F 23 °F (2011)
Degree Days  
Heating Degree Days 18    
Moisture  
Dew Point 42 °F    
Average Humidity 80    
Maximum Humidity 93    
Minimum Humidity 60    
Precipitation  
Precipitation 0.00 in 0.10 in - ()
Sea Level Pressure  
Sea Level Pressure 30.09 in    
Wind  
Wind Speed 15 mph ()    
Max Wind Speed 26 mph    
Max Gust Speed 37 mph    
Visibility 6.5 miles    
Events Rain    
Averages and records for this station are not official NWS values.
T = Trace of Precipitation, MM = Missing Value Source: Averaged Metar Reports

Daily Weather History Graph

Daily Weather History Graph

Search for Another Location

Airport or City:

Trip Planner

Search our weather history database for the weather conditions in past years. The results will help you decide how hot, cold, wet, or windy it might be!

Date:

Astronomy

Jan. 22, 2012 Rise Set
Actual Time 8:33 AM GMT 5:01 PM GMT
Civil Twilight 7:54 AM GMT 5:40 PM GMT
Nautical Twilight 7:11 AM GMT 6:23 PM GMT
Astronomical Twilight 6:31 AM GMT 7:03 PM GMT
Moon 7:41 AM GMT 4:29 PM GMT
Length of Visible Light 9h 46m
Length of Day
8h 28m
Waning Crescent, 1% of the Moon is Illuminated
Jan 22
Waning Crescent
Jan 23
New
Jan 31
First Quarter
Feb 7
Full
Feb 14
Last Quarter

Hourly Weather History & Observations

Time (GMT) Temp. Windchill Dew Point Humidity Pressure Visibility Wind Dir Wind Speed Gust Speed Precip Events Conditions
12:00 AM 47 °F - 44 °F 87% 30.11 in 9 mi WSW 15.7 mph - - Rain Light Drizzle
12:00 AM 46.4 °F 40.1 °F 44.6 °F 93% 30.09 in 6.2 mi WSW 15.0 mph - N/A   Light Drizzle
12:30 AM 48.2 °F - 44.6 °F 87% 30.09 in 6.2 mi WSW 17.3 mph - N/A   Mostly Cloudy
1:00 AM 48.2 °F - 44.6 °F 87% 30.06 in 6.2 mi WSW 20.7 mph - N/A   Mostly Cloudy
1:30 AM 48.2 °F - 44.6 °F 87% 30.06 in 6.2 mi WSW 20.7 mph - N/A   Mostly Cloudy
2:00 AM 48.2 °F - 46.4 °F 93% 30.06 in 6.2 mi WSW 20.7 mph - N/A   Mostly Cloudy
2:30 AM 48.2 °F - 46.4 °F 93% 30.04 in 6.2 mi WSW 21.9 mph - N/A   Mostly Cloudy
3:00 AM 50.0 °F - 46.4 °F 87% 30.04 in 6.2 mi WSW 23.0 mph 34.5 mph N/A   Mostly Cloudy
3:30 AM 50.0 °F - 46.4 °F 87% 30.04 in 5.0 mi WSW 24.2 mph - N/A   Light Drizzle
4:00 AM 50.0 °F - 46.4 °F 87% 30.04 in 6.2 mi WSW 23.0 mph - N/A   Light Drizzle
4:30 AM 50.0 °F - 46.4 °F 87% 30.04 in 5.0 mi WSW 23.0 mph - N/A   Light Drizzle
5:00 AM 50.0 °F - 46.4 °F 87% 30.01 in 6.2 mi WSW 21.9 mph - N/A   Mostly Cloudy
5:30 AM 50.0 °F - 46.4 °F 87% 30.01 in 6.2 mi WSW 24.2 mph - N/A   Light Drizzle
6:00 AM 50 °F - 44 °F 73% 30.04 in 11 mi West 20.1 mph - - Rain Light Drizzle
6:00 AM 50.0 °F - 44.6 °F 82% 30.04 in 6.2 mi West 20.7 mph - N/A   Mostly Cloudy
6:30 AM 50.0 °F - 42.8 °F 76% 30.04 in 6.2 mi West 23.0 mph - N/A   Mostly Cloudy
7:00 AM 50.0 °F - 42.8 °F 76% 30.04 in 6.2 mi West 19.6 mph - N/A   Light Drizzle
7:30 AM 50.0 °F - 41.0 °F 71% 30.04 in 6.2 mi West 26.5 mph - N/A   Mostly Cloudy
8:00 AM 48.2 °F - 41.0 °F 76% 30.04 in 6.2 mi West 21.9 mph 36.8 mph N/A   Mostly Cloudy
8:30 AM 48.2 °F - 42.8 °F 82% 30.06 in 5.6 mi West 20.7 mph - N/A Rain Light Rain Showers
9:00 AM 48.2 °F - 41.0 °F 76% 30.06 in 5.0 mi West 19.6 mph - N/A   Mostly Cloudy
9:30 AM 48.2 °F - 39.2 °F 71% 30.06 in 6.2 mi West 19.6 mph - N/A   Mostly Cloudy
10:00 AM 48.2 °F - 39.2 °F 71% 30.09 in 6.2 mi West 17.3 mph - N/A   Mostly Cloudy
10:30 AM 48.2 °F - 41.0 °F 76% 30.09 in 6.2 mi WNW 12.7 mph - N/A   Mostly Cloudy
11:00 AM 48.2 °F - 41.0 °F 76% 30.09 in 6.2 mi West 13.8 mph - N/A   Mostly Cloudy
11:30 AM 50.0 °F - 39.2 °F 66% 30.12 in 6.2 mi West 18.4 mph - N/A   Scattered Clouds
12:00 PM 49 °F - 39 °F 60% 30.12 in 11 mi West 20.1 mph - -   Partly Cloudy
12:00 PM 50.0 °F - 39.2 °F 66% 30.09 in 6.2 mi West 19.6 mph - N/A   Mostly Cloudy
12:30 PM 48.2 °F - 41.0 °F 76% 30.12 in 6.2 mi West 18.4 mph - N/A   Mostly Cloudy
1:00 PM 50.0 °F - 39.2 °F 66% 30.12 in 6.2 mi West 18.4 mph - N/A   Mostly Cloudy
1:30 PM 50.0 °F - 39.2 °F 66% 30.12 in 6.2 mi West 18.4 mph - N/A   Mostly Cloudy
2:00 PM 48.2 °F - 39.2 °F 71% 30.12 in 6.2 mi West 13.8 mph - N/A   Mostly Cloudy
2:30 PM 48.2 °F - 39.2 °F 71% 30.12 in 6.2 mi West 12.7 mph - N/A   Mostly Cloudy
3:00 PM 48.2 °F - 39.2 °F 71% 30.12 in 6.2 mi West 11.5 mph - N/A   Mostly Cloudy
3:30 PM 48.2 °F - 39.2 °F 71% 30.12 in 6.2 mi WNW 13.8 mph - N/A   Mostly Cloudy
4:00 PM 46.4 °F 41.5 °F 39.2 °F 76% 30.12 in 6.2 mi West 10.4 mph - N/A   Scattered Clouds
4:30 PM 46.4 °F 41.9 °F 39.2 °F 76% 30.12 in 6.2 mi West 9.2 mph - N/A   Mostly Cloudy
5:00 PM 46.4 °F 43.5 °F 39.2 °F 76% 30.12 in 6.2 mi WNW 5.8 mph - N/A   Mostly Cloudy
5:30 PM 46.4 °F 42.9 °F 39.2 °F 76% 30.12 in 6.2 mi WSW 6.9 mph - N/A   Mostly Cloudy
6:00 PM 46 °F - 40 °F 72% 30.15 in 12 mi WSW 8.9 mph - -   Mostly Cloudy
6:00 PM 46.4 °F 42.4 °F 39.2 °F 76% 30.12 in 6.2 mi WSW 8.1 mph - N/A   Mostly Cloudy
6:30 PM 44.6 °F 41.4 °F 41.0 °F 87% 30.15 in 6.2 mi West 5.8 mph - N/A   Scattered Clouds
7:00 PM 44.6 °F 41.4 °F 41.0 °F 87% 30.15 in 6.2 mi West 5.8 mph - N/A   Mostly Cloudy
7:30 PM 44.6 °F 41.4 °F 42.8 °F 93% 30.15 in 6.2 mi WSW 5.8 mph - N/A   Mostly Cloudy
8:00 PM 44.6 °F 41.4 °F 41.0 °F 87% 30.15 in 6.2 mi WSW 5.8 mph - N/A   Mostly Cloudy
8:30 PM 44.6 °F 42.2 °F 41.0 °F 87% 30.12 in 6.2 mi WSW 4.6 mph - N/A   Mostly Cloudy
9:00 PM 44.6 °F 40.2 °F 41.0 °F 87% 30.12 in 6.2 mi WSW 8.1 mph - N/A   Light Drizzle
9:30 PM 44.6 °F 40.2 °F 41.0 °F 87% 30.15 in 6.2 mi West 8.1 mph - N/A   Light Drizzle
10:00 PM 44.6 °F 41.4 °F 41.0 °F 87% 30.15 in 6.2 mi West 5.8 mph - N/A   Light Drizzle
10:30 PM 44.6 °F 42.2 °F 41.0 °F 87% 30.15 in 6.2 mi WSW 4.6 mph - N/A   Mostly Cloudy
11:00 PM 44.6 °F 41.4 °F 41.0 °F 87% 30.15 in 6.2 mi WSW 5.8 mph - N/A   Overcast
11:30 PM 44.6 °F 40.7 °F 42.8 °F 93% 30.15 in 5.6 mi WSW 6.9 mph - N/A   Light Drizzle